Location: Tel Aviv
(32.0670°N, 34.7670°E)
Time: 16:50:32
(UTC+02:00)

O/OREOS (USA 219) - Visible Passes

Search period start: 21 March 2023 00:00
Search period end: 31 March 2023 01:00
Orbit: 621 x 646 km, 72.0° (Epoch: 22 May)

Date Brightness Start Highest point End Pass type
(mag) Time Alt. Az. Time Alt. Az. Time Alt. Az.
21 Mar ? 05:07:50 10° SE 05:10:40 16° E 05:13:30 10° ENE visible
24 Mar ? 05:34:17 10° SE 05:37:27 18° E 05:40:36 10° ENE visible
25 Mar ? 05:54:53 10° S 05:59:16 45° ESE 06:03:38 10° NNE visible
27 Mar ? 05:00:48 10° SSE 05:04:13 21° E 05:07:38 10° NE visible
28 Mar ? 05:21:36 10° S 05:26:04 52° ESE 05:30:31 10° NNE visible
29 Mar ? 05:43:32 10° SSW 05:48:03 61° WNW 05:52:35 10° N visible
30 Mar ? 04:27:21 10° SSE 04:30:59 24° ESE 04:34:38 10° NE visible
30 Mar ? 06:06:27 10° WSW 06:10:14 25° WNW 06:14:01 10° N visible
